Location: Aufkirchen
(47.9603°N, 11.3653°E)
Time: 08:20:00
(UTC+01:00)

Transit 2A - Pass Details

Date: 03 December 2020
Orbit: 598 x 960 km, 66.7° (Epoch: 16 January)

Event Time Altitude Azimuth Distance (km) Brightness Sun altitude
Rises 15:50:13 0° 187° (S) 3,625 10.3 3.6°
Reaches altitude 10° 15:52:57 10° 180° (S) 2,672 9.4 3.2°
Maximum altitude 15:58:42 39° 114° (ESE) 1,360 7.1 2.5°
Drops below altitude 10° 16:04:11 10° 48° (NE) 2,549 8.1 1.7°
Sets 16:06:44 0° 40° (NE) 3,440 8.7 1.4°
